{"data":{"norad_id":65945,"epoch":"2026-09-20T13:11:28.233312Z","epoch_age_seconds":139305,"freshness":"FRESH","line1":"1 65945U 25227A   26263.54963233  .00005068  00000+0  21059-3 0  9999","line2":"2 65945  80.0060   7.6189 0009858 229.6513 130.3855 15.23636320 52074","mean_motion":15.2363632,"eccentricity":0.0009858,"inclination_deg":80.006,"raan_deg":7.6189,"arg_perigee_deg":229.6513,"mean_anomaly_deg":130.3855,"bstar":0.00021059,"rev_number":5207,"period_min":94.510742563553,"perigee_km":488.10793283181,"apogee_km":501.65877976629,"semimajor_km":6873.0203562991,"source":"CELESTRAK","updated_at":"2026-09-21T09:00:15.653289Z"}}